Theta_e
302 302 302 302 303 303 304 304 306 306 306 307 310 311 311 312 313 316 313 313 313 312 312 309 310 311 310 312 309 308 307 306 301 303 303 302 301 300 300 298 297 294 293
300 301 301 301 301 300 301 301 302 302 302 302 303 303 303 303 305 305 306 306 306 306 306 305 305 305 302 304 303 302 303 302 301 298 299 297 297 296 295 294 295 294 292
299 298 298 298 298 298 298 299 300 300 300 300 300 299 299 299 299 299 299 299 299 299 299 299 299 299 297 298 298 297 297 299 296 295 294 294 293 293 291 291 292 291 293
297 296 295 295 296 296 296 297 297 297 297 297 298 298 298 296 295 295 296 296 296 296 297 296 296 295 295 294 294 294 295 293 293 292 291 291 291 291 289 287 287 288 288
295 295 294 295 295 294 294 294 295 295 295 295 295 295 296 294 293 292 293 293 294 294 294 294 294 291 289 291 292 292 293 291 291 290 289 288 288 284 287 287 285 286 286
294 293 294 293 293 292 292 292 292 292 293 293 292 292 292 292 292 292 291 291 292 292 292 293 293 290 291 292 291 292 291 290 291 290 288 287 288 288 287 285 284 280 280
292 292 292 292 291 291 291 291 290 291 291 291 291 291 291 292 292 291 290 290 291 292 292 291 291 291 289 290 291 291 289 289 293 290 287 287 286 287 286 284 284 284 284
291 290 290 289 289 289 289 288 289 289 289 289 289 289 290 291 291 291 290 290 290 290 290 289 289 289 289 288 288 287 288 289 289 290 288 288 288 287 288 287 285 285 284
289 288 287 287 287 286 286 286 287 287 287 286 287 288 287 288 290 291 289 288 288 288 288 288 287 286 288 290 286 286 286 287 290 291 291 291 290 289 288 286 282 282 280
287 285 285 285 286 286 284 284 284 285 284 284 285 286 284 285 289 290 290 287 285 284 285 286 287 286 289 290 286 286 285 286 288 286 288 289 289 287 286 284 282 280 279
285 284 284 283 283 284 283 283 283 283 283 283 284 284 284 283 284 289 290 286 283 282 283 284 286 289 289 289 289 288 287 287 286 285 285 285 284 282 281 281 281 279 277
284 283 280 280 282 283 280 282 282 282 280 280 281 282 282 283 286 287 288 288 288 283 284 285 286 287 286 286 285 285 286 285 284 284 282 279 278 277 278 278 279 279 279
278 276 277 278 280 280 279 280 279 279 278 280 280 278 280 282 282 286 286 286 286 284 285 286 286 285 284 282 283 282 279 278 279 279 277 277 277 277 277 275 276 276 276
274 275 276 275 278 277 280 280 278 277 277 279 277 276 277 279 282 283 283 282 283 284 285 284 284 284 283 279 276 278 277 276 275 274 273 273 273 272 270 273 271 271 268
274 274 275 276 275 276 277 277 279 278 278 274 277 275 272 274 281 283 282 281 281 282 282 282 281 280 278 277 273 272 273 272 271 270 269 269 270 269 267 266 265 262 262
273 274 275 275 274 274 274 274 283 283 284 284 284 280 281 282 283 283 282 281 281 282 280 279 277 275 270 269 269 267 267 266 268 269 266 265 262 262 262 263 261 260 259
267 272 272 273 273 272 272 272 271 276 282 283 283 282 282 282 281 280 280 280 280 280 277 270 268 268 266 265 264 265 264 265 264 264 262 262 262 260 261 261 260 258 257
263 268 266 269 269 269 269 269 269 268 268 270 281 279 282 281 279 279 279 277 266 268 266 263 263 264 264 264 264 262 262 262 261 261 260 258 260 258 257 257 258 256 255
265 267 267 266 266 266 267 267 267 266 266 265 267 275 276 278 278 277 276 264 267 262 260 262 260 261 260 259 259 258 257 257 257 257 256 256 257 256 256 255 257 258 257
268 268 269 267 265 265 265 265 266 269 273 274 273 270 266 268 265 261 261 260 260 259 258 258 258 257 258 258 258 258 259 258 257 256 256 255 256 255 256 255 257 255 254
265 267 269 269 270 272 273 274 274 273 273 271 271 269 274 267 263 261 259 259 258 258 258 257 257 257 257 257 257 257 256 256 255 255 254 254 254 256 254 255 255 256 255
262 264 264 264 266 267 267 269 268 268 268 268 264 267 273 262 265 262 257 257 257 257 256 258 256 254 254 255 255 255 254 254 253 253 253 253 254 256 254 253 253 253 251
261 263 265 265 264 266 265 266 265 268 266 265 263 263 261 261 263 260 257 257 257 258 256 255 254 254 253 254 253 253 255 252 252 250 252 252 253 253 252 252 251 250 250
256 257 258 260 260 258 260 260 261 263 263 263 262 262 261 261 261 260 260 261 259 255 253 253 253 253 252 253 252 251 250 250 249 250 251 252 251 250 250 250 249 249 249
255 255 255 256 256 257 259 259 261 261 262 261 262 261 260 261 261 261 260 260 258 253 252 253 252 252 252 252 252 251 254 252 251 254 251 251 252 249 247 248 248 248 251
255 255 255 255 257 258 259 260 260 260 260 260 261 260 260 260 261 261 259 258 253 253 253 252 252 253 253 253 252 257 262 261 255 256 252 251 252 249 248 248 249 248 248
Wind_Speed
7 6 8 9 7 6 7 7 6 6 6 6 6 6 6 6 6 4 5 5 5 4 2 3 4 2 3 2 1 1 2 1 3 3 0 1 1 1 0 1 1 2 3
6 6 9 11 7 7 8 6 6 6 6 5 6 6 6 5 5 7 6 5 5 4 4 3 3 2 4 3 2 3 2 2 2 4 2 1 0 2 1 2 3 2 2
7 8 9 8 8 8 6 6 7 8 7 7 6 6 6 6 6 6 5 4 4 4 4 4 4 3 4 3 2 3 2 2 2 2 3 2 1 1 2 2 2 3 2
8 8 9 9 8 7 7 7 7 6 6 6 6 6 6 7 7 7 6 6 6 5 4 4 4 4 4 4 4 4 3 3 2 2 3 3 3 1 1 2 3 2 4
8 9 8 7 7 6 7 7 7 8 7 7 7 7 7 7 6 6 6 6 6 6 6 6 5 5 6 5 3 4 4 3 2 3 3 2 2 2 1 2 2 3 4
8 7 6 7 7 7 7 7 7 7 7 7 7 6 6 4 11 12 9 5 5 5 6 6 5 5 5 5 5 4 4 3 3 2 2 2 3 1 2 2 2 3 4
7 7 6 6 7 6 6 6 6 6 5 6 6 6 6 5 12 11 10 4 5 5 5 5 5 4 6 5 6 3 6 7 5 2 2 2 2 2 1 3 2 3 3
7 7 6 6 7 6 7 7 7 5 7 6 6 6 6 6 12 13 13 6 5 6 6 6 6 7 7 6 6 6 5 4 3 2 1 2 3 4 3 2 3 4 4
6 5 5 5 6 6 6 6 5 5 5 5 4 6 6 5 11 12 8 5 5 6 6 6 6 7 10 10 6 6 5 4 6 7 6 6 7 8 7 2 3 3 4
4 3 3 4 5 6 5 5 3 4 4 4 5 6 6 6 11 14 11 4 5 5 6 6 10 7 10 10 5 5 6 4 4 3 2 4 6 9 12 6 3 3 3
3 3 4 4 5 5 4 3 4 5 5 5 5 5 5 6 6 13 14 5 3 3 5 5 6 16 17 17 14 7 6 5 5 3 3 3 5 6 5 5 5 4 2
2 3 4 4 4 3 4 4 3 4 4 4 4 4 3 5 7 11 13 12 9 4 5 3 4 13 14 15 10 13 13 8 3 3 5 5 5 5 5 5 5 4 3
3 2 2 3 3 3 3 3 3 3 2 2 2 2 2 3 4 11 12 12 11 5 4 6 9 10 11 9 14 14 10 5 5 5 4 5 4 4 4 3 3 4 1
1 2 1 0 1 0 0 1 1 0 0 1 2 2 2 1 4 4 5 5 7 6 6 2 3 6 10 9 6 8 6 6 5 4 3 3 2 3 3 4 2 4 3
3 3 2 1 3 2 3 3 2 2 3 2 0 2 1 2 3 5 5 4 5 5 4 2 3 3 3 3 3 5 6 6 5 4 4 4 5 4 3 3 2 3 3
4 3 3 2 2 2 1 2 2 2 2 1 1 2 0 1 5 7 8 8 10 6 1 2 3 4 4 4 4 3 4 5 4 4 4 4 3 3 3 4 3 3 2
5 5 3 1 1 2 2 2 2 2 2 0 2 1 2 5 8 7 6 5 8 5 3 3 3 3 3 3 2 3 2 3 3 4 4 4 3 3 4 4 3 2 3
5 6 3 3 1 0 1 1 2 2 2 1 3 1 2 6 5 6 7 5 4 5 3 2 3 3 3 3 3 3 3 4 4 4 4 3 4 3 3 3 3 3 3
3 3 4 4 3 3 2 1 1 1 2 2 2 2 3 7 5 8 9 3 3 3 2 3 2 3 2 3 2 3 3 2 2 3 3 3 3 3 3 3 3 4 4
5 4 3 2 2 2 2 1 2 2 2 2 2 2 2 2 3 2 3 3 3 2 2 3 2 3 3 3 3 2 3 4 3 3 3 3 2 2 2 3 3 3 3
3 4 5 3 4 3 3 2 2 2 1 0 3 1 4 3 4 3 2 3 3 2 3 3 3 3 3 2 3 4 4 3 3 2 3 3 3 3 3 2 3 3 4
3 3 3 2 3 3 3 3 3 2 1 2 2 3 8 3 4 4 3 3 2 3 2 4 3 2 2 3 2 3 3 3 3 3 3 3 3 4 3 4 4 4 4
3 4 4 3 2 4 3 2 2 2 1 3 3 3 3 3 4 4 3 2 3 3 3 3 3 3 3 3 3 3 4 2 1 1 3 3 4 4 4 4 3 4 4
3 3 3 3 3 3 3 3 2 2 2 3 3 3 3 3 4 4 3 3 3 3 3 3 3 4 2 3 2 3 3 2 2 3 5 5 4 4 4 4 3 4 3
2 3 3 2 3 3 3 2 2 1 2 3 3 3 3 4 4 4 3 3 3 3 3 3 3 3 4 5 5 4 4 5 5 5 4 5 6 5 4 3 4 4 5
2 2 2 2 3 2 2 2 2 2 3 2 3 3 3 3 3 4 3 3 3 2 2 2 2 3 3 4 4 4 6 6 5 6 5 4 5 4 4 4 5 4 4
Wind_Direction
49 102 100 85 68 65 71 62 70 69 56 53 56 57 54 46 29 54 60 40 42 26 16 13 328 353 331 357 5 338 287 229 244 292 195 227 169 239 352 298 323 328 329
89 83 81 84 75 80 68 62 64 77 63 56 61 58 56 48 40 40 33 24 30 19 5 7 326 351 335 306 299 271 254 268 220 266 291 341 2 44 39 340 319 312 306
80 77 74 76 76 66 65 56 48 51 46 42 50 50 43 39 40 34 23 17 15 5 358 354 333 334 298 298 288 288 300 294 282 266 290 3 326 359 353 315 298 297 315
76 78 75 65 65 63 57 58 62 62 63 49 44 48 44 41 30 12 8 6 358 347 338 335 319 312 299 303 295 282 282 287 282 264 257 260 239 280 66 302 329 359 319
78 76 72 72 72 72 62 53 49 47 44 44 40 34 36 50 27 13 6 358 353 345 346 343 331 327 334 330 327 313 308 277 276 269 276 291 277 320 301 340 315 318 308
80 77 75 69 60 53 51 47 45 40 39 42 41 34 27 58 33 19 13 353 352 351 342 341 343 341 328 312 301 302 304 299 293 290 283 289 302 338 18 10 339 15 331
79 71 66 68 66 57 56 56 49 42 40 40 36 28 22 34 32 14 4 343 349 347 342 337 336 339 341 331 329 308 305 288 261 279 288 303 336 27 71 7 4 342 303
71 64 53 57 57 49 47 43 37 29 32 23 19 14 22 29 27 10 357 1 4 356 355 353 349 343 345 352 344 348 342 336 4 7 338 20 60 48 57 58 345 298 298
73 67 56 57 64 58 52 43 38 35 29 18 9 13 24 16 22 8 5 7 13 13 11 11 22 6 0 3 1 357 5 18 44 39 47 54 73 58 36 36 10 341 319
93 94 76 68 71 66 52 47 42 44 22 9 5 15 20 11 13 14 10 9 18 16 18 24 22 16 13 15 24 16 23 6 19 30 54 78 62 69 49 50 26 340 322
133 103 76 64 71 60 48 38 22 15 15 12 9 4 40 28 11 20 22 25 7 23 28 21 24 46 44 43 41 33 31 19 24 47 53 50 53 44 36 25 20 352 343
72 63 51 40 38 47 55 23 13 21 14 355 15 13 40 36 36 24 24 30 40 56 43 38 58 58 55 49 44 34 32 24 7 34 61 51 34 22 5 8 1 16 347
68 52 36 31 36 44 50 26 17 16 19 352 17 28 11 14 28 34 26 24 23 33 28 33 49 51 51 41 37 38 36 24 19 36 45 46 25 5 17 352 351 330 351
335 288 262 64 11 80 52 155 129 137 70 83 31 11 344 34 18 13 19 11 7 12 356 41 74 82 66 58 33 30 29 40 37 31 34 20 7 12 24 350 349 330 37
294 283 282 215 189 192 205 185 165 191 148 163 258 151 47 9 17 25 19 1 3 330 316 328 39 19 44 42 53 40 32 29 36 20 32 22 27 16 352 347 7 359 56
292 281 253 228 221 194 190 311 251 131 92 65 87 113 83 330 35 31 12 354 346 338 319 356 59 56 45 35 31 47 33 24 21 31 32 26 13 11 355 348 14 31 26
302 307 319 270 253 211 193 197 192 309 140 312 160 13 351 90 43 20 344 2 16 20 60 54 69 61 54 51 53 52 43 23 24 40 43 20 358 4 21 5 353 7 343
321 309 296 303 272 335 184 203 127 136 176 263 184 250 227 113 71 26 13 71 30 27 54 77 76 62 49 60 46 40 26 24 31 39 35 17 16 38 13 360 1 5 354
331 344 346 343 3 356 0 31 126 156 179 188 34 54 86 104 84 48 49 83 104 68 56 55 58 67 67 76 73 64 74 45 39 42 24 27 10 56 15 7 0 14 14
336 333 3 332 331 322 312 303 268 221 203 187 188 219 134 90 68 44 43 74 83 85 83 83 54 63 63 68 55 68 54 41 32 37 26 26 15 48 33 5 15 21 4
334 341 355 331 331 343 346 332 334 354 2 68 102 119 113 118 128 117 87 68 94 91 96 92 69 62 49 49 65 65 71 51 40 53 38 9 22 26 4 32 27 34 24
327 329 336 336 334 336 348 346 352 3 340 113 63 46 86 77 104 101 88 76 66 69 91 98 83 85 80 73 69 84 81 69 28 22 33 34 41 35 32 29 22 21 27
333 338 339 335 337 334 322 310 338 320 330 94 114 98 78 87 98 98 103 93 73 57 45 82 90 59 29 44 58 110 108 105 197 125 74 54 45 43 41 40 20 19 21
346 346 341 326 339 340 333 334 336 12 77 104 103 104 107 107 105 106 99 93 82 59 59 70 77 89 60 41 55 64 82 78 72 74 94 85 67 43 47 46 29 16 14
350 347 349 334 341 330 338 341 360 65 89 101 107 101 99 107 108 106 100 100 98 86 69 69 69 83 80 81 79 78 71 64 61 67 72 79 79 71 67 64 38 21 31
336 343 329 346 344 346 358 12 41 62 87 89 100 109 118 115 113 114 115 113 104 102 101 80 84 81 66 78 117 110 89 82 66 72 83 83 80 58 63 62 48 51 45